Time,TemperatureF,DewpointF,PressureIn,WindDirection,WindDirectionDegrees,WindSpeedMPH,WindSpeedGustMPH,Humidity,HourlyPrecipIn,Conditions,Clouds,dailyrainin,SoftwareType,DateUTC
2013-05-09 00:00:00,42.6,41.3,29.88,South,185,4.9,7.6,95,0.00,,---,0.00,VWS V14.01,2013-05-09 04:00:00,
2013-05-09 00:05:00,42.4,41.4,29.88,SSW,207,4.5,6.3,96,0.00,,---,0.00,VWS V14.01,2013-05-09 04:05:00,
2013-05-09 00:10:00,42.3,41.5,29.88,SSW,207,4.5,5.8,97,0.00,,---,0.00,VWS V14.01,2013-05-09 04:10:00,
2013-05-09 00:15:00,42.1,41.6,29.88,SSW,208,2.7,4.5,98,0.00,,---,0.00,VWS V14.01,2013-05-09 04:15:00,
2013-05-09 00:20:00,41.7,41.5,29.88,SSW,207,2.2,4.5,99,0.00,,---,0.00,VWS V14.01,2013-05-09 04:20:00,
2013-05-09 00:30:00,41.5,41.5,29.88,WSW,256,8.5,8.5,100,0.00,,---,0.00,VWS V14.01,2013-05-09 04:30:00,
2013-05-09 00:35:00,41.9,41.9,29.88,SW,230,5.4,11.6,100,0.00,,---,0.00,VWS V14.01,2013-05-09 04:35:00,
2013-05-09 00:45:00,43.0,42.5,29.88,SW,230,5.8,12.1,98,0.00,,---,0.00,VWS V14.01,2013-05-09 04:45:00,
2013-05-09 00:50:00,43.0,41.7,29.88,South,178,6.3,9.8,95,0.00,,---,0.00,VWS V14.01,2013-05-09 04:50:00,
2013-05-09 00:55:00,43.2,41.8,29.88,SW,221,7.2,10.7,95,0.00,,---,0.00,VWS V14.01,2013-05-09 04:55:00,
2013-05-09 01:00:00,43.0,41.4,29.88,SSE,149,0.0,7.2,94,0.00,,---,0.00,VWS V14.01,2013-05-09 05:00:00,
2013-05-09 01:05:00,42.8,41.2,29.88,SE,126,7.2,7.2,94,0.00,,---,0.00,VWS V14.01,2013-05-09 05:05:00,
2013-05-09 01:10:00,42.8,41.5,29.88,South,174,6.3,10.7,95,0.00,,---,0.00,VWS V14.01,2013-05-09 05:10:00,
2013-05-09 01:20:00,42.4,41.4,29.85,SSW,202,5.8,6.3,96,0.00,,---,0.00,VWS V14.01,2013-05-09 05:20:00,
2013-05-09 01:25:00,42.3,41.2,29.85,SSW,209,4.0,6.3,96,0.00,,---,0.00,VWS V14.01,2013-05-09 05:25:00,
2013-05-09 01:30:00,41.9,41.1,29.85,SSW,202,7.2,8.5,97,0.00,,---,0.00,VWS V14.01,2013-05-09 05:30:00,
2013-05-09 01:35:00,42.3,42.3,29.85,SSW,208,6.3,8.9,100,0.00,,---,0.00,VWS V14.01,2013-05-09 05:35:00,
2013-05-09 01:40:00,42.3,42.3,29.85,SSW,207,4.0,6.7,100,0.00,,---,0.00,VWS V14.01,2013-05-09 05:40:00,
2013-05-09 01:45:00,42.4,42.4,29.85,SSW,208,4.9,5.8,100,0.00,,---,0.00,VWS V14.01,2013-05-09 05:45:00,
2013-05-09 01:50:00,42.4,42.4,29.85,SSW,208,2.7,5.4,100,0.00,,---,0.00,VWS V14.01,2013-05-09 05:50:00,
2013-05-09 01:55:00,42.6,42.6,29.85,South,169,3.6,4.9,100,0.00,,---,0.00,VWS V14.01,2013-05-09 05:55:00,
2013-05-09 02:00:00,42.8,42.5,29.85,SE,133,5.4,7.6,99,0.00,,---,0.00,VWS V14.01,2013-05-09 06:00:00,
2013-05-09 02:05:00,43.2,42.4,29.85,SSE,147,4.0,7.2,97,0.00,,---,0.00,VWS V14.01,2013-05-09 06:05:00,
2013-05-09 02:10:00,43.2,42.4,29.85,SSE,167,5.4,7.2,97,0.00,,---,0.00,VWS V14.01,2013-05-09 06:10:00,
2013-05-09 02:15:00,43.2,42.6,29.85,SSE,152,6.7,9.8,98,0.00,,---,0.00,VWS V14.01,2013-05-09 06:15:00,
2013-05-09 02:20:00,43.2,42.9,29.85,SSE,150,4.5,8.1,99,0.00,,---,0.00,VWS V14.01,2013-05-09 06:20:00,
2013-05-09 02:25:00,43.0,42.7,29.85,SE,145,4.5,6.3,99,0.00,,---,0.00,VWS V14.01,2013-05-09 06:25:00,
2013-05-09 02:30:00,43.2,42.6,29.85,SSE,150,3.1,7.6,98,0.00,,---,0.00,VWS V14.01,2013-05-09 06:30:00,
2013-05-09 02:35:00,43.3,42.0,29.85,SE,145,8.5,10.3,95,0.00,,---,0.00,VWS V14.01,2013-05-09 06:35:00,
2013-05-09 02:40:00,43.3,41.7,29.85,SSE,154,4.0,9.4,94,0.00,,---,0.00,VWS V14.01,2013-05-09 06:40:00,
2013-05-09 02:45:00,43.2,42.1,29.85,SSE,156,3.1,6.7,96,0.00,,---,0.00,VWS V14.01,2013-05-09 06:45:00,
2013-05-09 02:50:00,42.8,42.3,29.85,SSE,156,0.0,3.6,98,0.00,,---,0.00,VWS V14.01,2013-05-09 06:50:00,
2013-05-09 02:55:00,42.8,42.5,29.85,SSE,157,0.0,0.0,99,0.00,,---,0.00,VWS V14.01,2013-05-09 06:55:00,
2013-05-09 03:00:00,42.6,42.4,29.85,SSE,156,0.0,0.0,99,0.00,,---,0.00,VWS V14.01,2013-05-09 07:00:00,
2013-05-09 03:05:00,42.4,42.4,29.85,SSE,156,0.0,0.0,100,0.00,,---,0.00,VWS V14.01,2013-05-09 07:05:00,
2013-05-09 03:10:00,42.4,42.4,29.85,SSE,156,0.0,0.0,100,0.00,,---,0.00,VWS V14.01,2013-05-09 07:10:00,
2013-05-09 03:15:00,42.4,42.4,29.85,SSE,161,2.2,5.4,100,0.00,,---,0.00,VWS V14.01,2013-05-09 07:15:00,
2013-05-09 03:20:00,42.6,42.6,29.85,SE,129,4.9,5.8,100,0.00,,---,0.00,VWS V14.01,2013-05-09 07:20:00,
2013-05-09 03:25:00,42.8,42.3,29.85,SSE,150,4.5,7.2,98,0.00,,---,0.00,VWS V14.01,2013-05-09 07:25:00,
2013-05-09 03:30:00,42.6,41.8,29.85,South,174,4.0,8.1,97,0.00,,---,0.00,VWS V14.01,2013-05-09 07:30:00,
2013-05-09 03:35:00,42.4,41.9,29.85,SSE,160,6.3,8.1,98,0.00,,---,0.00,VWS V14.01,2013-05-09 07:35:00,
2013-05-09 03:40:00,42.3,42.0,29.85,SSE,161,5.8,8.1,99,0.00,,---,0.00,VWS V14.01,2013-05-09 07:40:00,
2013-05-09 03:45:00,42.3,42.0,29.85,South,191,8.5,11.2,99,0.00,,---,0.00,VWS V14.01,2013-05-09 07:45:00,
2013-05-09 03:50:00,42.3,41.5,29.85,SSW,202,4.9,10.3,97,0.00,,---,0.00,VWS V14.01,2013-05-09 07:50:00,
2013-05-09 03:55:00,42.1,41.3,29.85,South,190,5.4,8.5,97,0.00,,---,0.00,VWS V14.01,2013-05-09 07:55:00,
2013-05-09 04:00:00,42.1,41.3,29.85,South,191,6.7,12.5,97,0.00,,---,0.00,VWS V14.01,2013-05-09 08:00:00,
2013-05-09 04:05:00,42.1,41.0,29.85,SSW,200,8.9,10.3,96,0.00,,---,0.00,VWS V14.01,2013-05-09 08:05:00,
2013-05-09 04:10:00,42.3,40.9,29.85,South,191,7.6,9.8,95,0.00,,---,0.00,VWS V14.01,2013-05-09 08:10:00,
2013-05-09 04:15:00,42.1,41.0,29.85,South,169,4.9,8.1,96,0.00,,---,0.00,VWS V14.01,2013-05-09 08:15:00,
2013-05-09 04:20:00,41.7,40.9,29.85,SSE,166,3.6,4.9,97,0.00,,---,0.00,VWS V14.01,2013-05-09 08:20:00,
2013-05-09 04:25:00,41.4,40.6,29.85,SSE,166,0.0,4.0,97,0.00,,---,0.00,VWS V14.01,2013-05-09 08:25:00,
2013-05-09 04:30:00,41.0,40.2,29.85,SSE,166,0.0,2.2,97,0.00,,---,0.00,VWS V14.01,2013-05-09 08:30:00,
2013-05-09 04:35:00,40.8,40.3,29.85,SSE,166,4.0,5.4,98,0.00,,---,0.00,VWS V14.01,2013-05-09 08:35:00,
2013-05-09 04:40:00,40.6,40.4,29.85,South,183,4.0,7.2,99,0.00,,---,0.00,VWS V14.01,2013-05-09 08:40:00,
2013-05-09 04:45:00,40.1,39.6,29.83,South,169,3.1,6.3,98,0.00,,---,0.00,VWS V14.01,2013-05-09 08:45:00,
2013-05-09 04:50:00,39.6,39.0,29.83,South,170,3.1,5.8,98,0.00,,---,0.00,VWS V14.01,2013-05-09 08:50:00,
2013-05-09 04:55:00,39.4,39.4,29.83,South,170,4.0,4.9,100,0.00,,---,0.00,VWS V14.01,2013-05-09 08:55:00,
2013-05-09 05:00:00,39.6,39.6,29.85,SSW,202,4.9,7.2,100,0.00,,---,0.00,VWS V14.01,2013-05-09 09:00:00,
2013-05-09 05:05:00,39.4,39.4,29.85,SSE,167,2.7,6.7,100,0.00,,---,0.00,VWS V14.01,2013-05-09 09:05:00,
2013-05-09 05:10:00,39.4,39.4,29.85,South,170,4.9,8.5,100,0.00,,---,0.00,VWS V14.01,2013-05-09 09:10:00,
2013-05-09 05:15:00,39.6,39.6,29.83,SSE,147,5.8,8.1,100,0.00,,---,0.00,VWS V14.01,2013-05-09 09:15:00,
2013-05-09 05:20:00,40.3,40.3,29.83,SSE,153,5.4,10.7,100,0.00,,---,0.00,VWS V14.01,2013-05-09 09:20:00,
2013-05-09 05:25:00,40.6,40.6,29.83,SSE,161,4.5,10.7,100,0.00,,---,0.00,VWS V14.01,2013-05-09 09:25:00,
2013-05-09 05:30:00,40.6,40.6,29.83,South,190,9.4,10.7,100,0.00,,---,0.00,VWS V14.01,2013-05-09 09:30:00,
2013-05-09 05:35:00,40.6,40.6,29.83,South,171,4.9,10.3,100,0.00,,---,0.00,VWS V14.01,2013-05-09 09:35:00,
2013-05-09 05:40:00,40.1,40.1,29.83,WSW,245,4.5,8.1,100,0.00,,---,0.00,VWS V14.01,2013-05-09 09:40:00,
2013-05-09 05:45:00,39.6,39.3,29.83,SW,233,3.1,5.4,99,0.00,,---,0.00,VWS V14.01,2013-05-09 09:45:00,
2013-05-09 05:50:00,39.2,39.2,29.83,SW,233,0.0,3.1,100,0.00,,---,0.00,VWS V14.01,2013-05-09 09:50:00,
2013-05-09 05:55:00,39.0,39.0,29.83,SW,233,0.0,0.0,100,0.00,,---,0.00,VWS V14.01,2013-05-09 09:55:00,
2013-05-09 06:00:00,39.0,39.0,29.85,South,187,3.1,5.4,100,0.00,,---,0.00,VWS V14.01,2013-05-09 10:00:00,
2013-05-09 06:05:00,39.4,39.4,29.85,SSE,150,6.7,9.8,100,0.00,,---,0.00,VWS V14.01,2013-05-09 10:05:00,
2013-05-09 06:10:00,39.9,39.9,29.85,South,185,5.4,9.8,100,0.00,,---,0.00,VWS V14.01,2013-05-09 10:10:00,
2013-05-09 06:15:00,40.1,40.1,29.85,SE,146,7.6,9.4,100,0.00,,---,0.00,VWS V14.01,2013-05-09 10:15:00,
2013-05-09 06:20:00,40.5,40.5,29.85,South,178,8.9,10.7,100,0.00,,---,0.00,VWS V14.01,2013-05-09 10:20:00,
2013-05-09 06:25:00,40.6,40.6,29.85,SSE,163,7.2,12.1,100,0.00,,---,0.00,VWS V14.01,2013-05-09 10:25:00,
2013-05-09 06:30:00,40.8,40.8,29.85,SSE,157,5.4,9.4,100,0.00,,---,0.00,VWS V14.01,2013-05-09 10:30:00,
2013-05-09 06:35:00,40.6,40.6,29.85,South,185,6.3,11.6,100,0.00,,---,0.00,VWS V14.01,2013-05-09 10:35:00,
2013-05-09 06:40:00,41.0,41.0,29.85,South,174,5.8,12.1,100,0.00,,---,0.00,VWS V14.01,2013-05-09 10:40:00,
2013-05-09 06:45:00,41.2,41.2,29.85,South,181,6.3,10.7,100,0.00,,---,0.00,VWS V14.01,2013-05-09 10:45:00,
2013-05-09 06:50:00,41.4,41.4,29.85,SSE,161,4.0,10.3,100,0.00,,---,0.00,VWS V14.01,2013-05-09 10:50:00,
2013-05-09 06:55:00,41.4,41.4,29.85,SSE,164,4.9,8.9,100,0.00,,---,0.00,VWS V14.01,2013-05-09 10:55:00,
2013-05-09 07:00:00,41.5,41.5,29.85,SSW,192,8.5,9.8,100,0.00,,---,0.00,VWS V14.01,2013-05-09 11:00:00,
2013-05-09 07:05:00,41.5,41.5,29.85,South,181,9.8,13.0,100,0.00,,---,0.00,VWS V14.01,2013-05-09 11:05:00,
2013-05-09 07:10:00,41.9,41.9,29.85,SSE,166,6.7,13.9,100,0.00,,---,0.00,VWS V14.01,2013-05-09 11:10:00,
2013-05-09 07:15:00,42.1,42.1,29.85,South,188,10.7,13.0,100,0.00,,---,0.00,VWS V14.01,2013-05-09 11:15:00,
2013-05-09 07:20:00,42.3,42.3,29.85,SSW,197,10.3,15.7,100,0.00,,---,0.00,VWS V14.01,2013-05-09 11:20:00,
2013-05-09 07:25:00,42.4,42.4,29.85,SSW,202,13.0,17.9,100,0.00,,---,0.00,VWS V14.01,2013-05-09 11:25:00,
2013-05-09 07:30:00,42.6,42.6,29.85,South,191,13.0,15.7,100,0.00,,---,0.00,VWS V14.01,2013-05-09 11:30:00,
2013-05-09 07:35:00,42.8,42.8,29.85,South,191,12.5,13.9,100,0.00,,---,0.00,VWS V14.01,2013-05-09 11:35:00,
2013-05-09 07:45:00,43.2,43.2,29.85,South,188,7.2,12.5,100,0.00,,---,0.00,VWS V14.01,2013-05-09 11:45:00,
2013-05-09 07:50:00,43.3,43.3,29.85,South,177,7.2,14.3,100,0.00,,---,0.00,VWS V14.01,2013-05-09 11:50:00,
2013-05-09 08:00:00,43.7,42.1,29.85,South,183,6.7,10.3,94,0.00,,---,0.00,VWS V14.01,2013-05-09 12:00:00,
2013-05-09 08:05:00,44.2,42.3,29.85,South,171,4.0,11.2,93,0.00,,---,0.00,VWS V14.01,2013-05-09 12:05:00,
2013-05-09 08:10:00,44.6,42.4,29.85,South,173,7.2,11.2,92,0.00,,---,0.00,VWS V14.01,2013-05-09 12:10:00,
2013-05-09 08:15:00,44.4,41.7,29.85,South,191,11.6,12.1,90,0.00,,---,0.00,VWS V14.01,2013-05-09 12:15:00,
2013-05-09 08:20:00,44.8,42.0,29.85,South,183,6.7,11.6,90,0.00,,---,0.00,VWS V14.01,2013-05-09 12:20:00,
2013-05-09 08:30:00,45.3,41.4,29.85,South,176,5.4,13.9,86,0.00,,---,0.00,VWS V14.01,2013-05-09 12:30:00,
2013-05-09 08:35:00,45.7,40.5,29.85,South,187,6.7,11.2,82,0.00,,---,0.00,VWS V14.01,2013-05-09 12:35:00,
2013-05-09 08:40:00,45.9,41.3,29.85,South,188,9.8,14.3,84,0.00,,---,0.00,VWS V14.01,2013-05-09 12:40:00,
2013-05-09 08:50:00,47.1,41.3,29.85,SSW,201,12.5,16.6,80,0.00,,---,0.00,VWS V14.01,2013-05-09 12:50:00,
2013-05-09 08:55:00,47.1,41.6,29.85,South,180,9.4,17.4,81,0.00,,---,0.00,VWS V14.01,2013-05-09 12:55:00,
2013-05-09 09:05:00,48.4,42.2,29.85,South,188,6.7,11.2,79,0.00,,---,0.00,VWS V14.01,2013-05-09 13:05:00,
2013-05-09 09:10:00,49.1,42.2,29.85,SSW,212,7.6,11.2,77,0.00,,---,0.00,VWS V14.01,2013-05-09 13:10:00,
2013-05-09 09:20:00,50.0,42.7,29.85,South,187,8.5,12.5,76,0.00,,---,0.00,VWS V14.01,2013-05-09 13:20:00,
2013-05-09 09:25:00,50.0,43.1,29.85,SSW,208,10.3,13.9,77,0.00,,---,0.00,VWS V14.01,2013-05-09 13:25:00,
2013-05-09 09:35:00,50.5,43.3,29.85,SSE,159,6.7,11.2,76,0.00,,---,0.00,VWS V14.01,2013-05-09 13:35:00,
2013-05-09 09:40:00,51.3,43.6,29.85,SSW,205,8.1,14.3,75,0.00,,---,0.00,VWS V14.01,2013-05-09 13:40:00,
2013-05-09 09:45:00,51.4,43.4,29.85,South,188,5.8,10.3,74,0.00,,---,0.00,VWS V14.01,2013-05-09 13:45:00,
2013-05-09 09:55:00,51.3,42.2,29.85,SW,232,7.2,15.2,71,0.00,,---,0.00,VWS V14.01,2013-05-09 13:55:00,
2013-05-09 10:00:00,51.3,42.2,29.85,SW,229,11.6,13.0,71,0.00,,---,0.00,VWS V14.01,2013-05-09 14:00:00,
2013-05-09 10:10:00,49.5,42.2,29.85,SW,232,8.5,11.6,76,0.00,,---,0.00,VWS V14.01,2013-05-09 14:10:00,
2013-05-09 10:15:00,50.4,42.4,29.85,South,185,7.2,11.2,74,0.00,,---,0.00,VWS V14.01,2013-05-09 14:15:00,
2013-05-09 10:25:00,50.4,42.4,29.85,SSE,156,9.4,9.4,74,0.00,,---,0.00,VWS V14.01,2013-05-09 14:25:00,
2013-05-09 10:30:00,50.4,42.4,29.85,South,191,4.5,9.4,74,0.00,,---,0.00,VWS V14.01,2013-05-09 14:30:00,
2013-05-09 10:40:00,51.3,44.0,29.85,ESE,122,10.3,12.1,76,0.00,,---,0.00,VWS V14.01,2013-05-09 14:40:00,
2013-05-09 10:45:00,50.5,41.9,29.85,SE,132,9.4,12.1,72,0.00,,---,0.00,VWS V14.01,2013-05-09 14:45:00,
2013-05-09 10:55:00,51.6,42.5,29.85,South,181,9.8,11.6,71,0.00,,---,0.00,VWS V14.01,2013-05-09 14:55:00,
2013-05-09 11:00:00,51.6,42.5,29.85,SE,145,10.3,11.6,71,0.00,,---,0.00,VWS V14.01,2013-05-09 15:00:00,
2013-05-09 11:10:00,51.6,42.5,29.85,SSE,157,5.8,11.6,71,0.00,,---,0.00,VWS V14.01,2013-05-09 15:10:00,
2013-05-09 11:15:00,51.6,42.5,29.85,SSE,161,5.8,15.2,71,0.00,,---,0.00,VWS V14.01,2013-05-09 15:15:00,
2013-05-09 11:20:00,51.6,42.5,29.85,SSW,192,10.3,11.2,71,0.00,,---,0.00,VWS V14.01,2013-05-09 15:20:00,
2013-05-09 11:30:00,51.6,42.5,29.85,SW,225,6.3,15.7,71,0.00,,---,0.00,VWS V14.01,2013-05-09 15:30:00,
2013-05-09 11:35:00,51.6,42.5,29.85,East,92,6.3,8.5,71,0.00,,---,0.00,VWS V14.01,2013-05-09 15:35:00,
2013-05-09 11:40:00,51.6,42.5,29.85,SSE,152,8.1,13.0,71,0.00,,---,0.00,VWS V14.01,2013-05-09 15:40:00,
2013-05-09 11:50:00,51.6,42.5,29.85,SE,146,9.4,11.6,71,0.00,,---,0.00,VWS V14.01,2013-05-09 15:50:00,
2013-05-09 12:00:00,51.6,42.5,29.85,ESE,123,0.0,8.5,71,0.00,,---,0.00,VWS V14.01,2013-05-09 16:00:00,
2013-05-09 12:05:00,50.9,41.8,29.85,South,178,7.2,8.5,71,0.00,,---,0.00,VWS V14.01,2013-05-09 16:05:00,
2013-05-09 12:15:00,50.5,42.6,29.85,SSE,161,8.1,10.3,74,0.00,,---,0.00,VWS V14.01,2013-05-09 16:15:00,
2013-05-09 12:20:00,50.5,42.2,29.85,SE,146,9.4,9.4,73,0.00,,---,0.00,VWS V14.01,2013-05-09 16:20:00,
2013-05-09 12:25:00,50.7,42.8,29.85,South,173,5.4,12.1,74,0.00,,---,0.00,VWS V14.01,2013-05-09 16:25:00,
2013-05-09 12:35:00,50.9,42.9,29.85,SSW,195,7.2,9.8,74,0.00,,---,0.00,VWS V14.01,2013-05-09 16:35:00,
2013-05-09 12:40:00,53.1,43.2,29.85,South,173,7.2,10.3,69,0.00,,---,0.00,VWS V14.01,2013-05-09 16:40:00,
2013-05-09 12:50:00,52.9,43.8,29.85,SSE,164,7.2,11.2,71,0.00,,---,0.00,VWS V14.01,2013-05-09 16:50:00,
2013-05-09 12:55:00,52.9,43.8,29.85,SSE,150,8.1,12.1,71,0.00,,---,0.00,VWS V14.01,2013-05-09 16:55:00,
2013-05-09 13:05:00,52.3,43.6,29.85,SSW,198,8.1,14.3,72,0.00,,---,0.00,VWS V14.01,2013-05-09 17:05:00,
2013-05-09 13:10:00,52.3,43.6,29.85,South,170,6.3,11.2,72,0.00,,---,0.00,VWS V14.01,2013-05-09 17:10:00,
2013-05-09 13:20:00,54.5,43.4,29.85,SW,226,12.1,13.9,66,0.00,,---,0.00,VWS V14.01,2013-05-09 17:20:00,
2013-05-09 13:25:00,56.3,45.1,29.85,SW,218,10.3,13.0,66,0.00,,---,0.00,VWS V14.01,2013-05-09 17:25:00,
2013-05-09 13:30:00,56.3,45.1,29.85,South,177,5.8,10.7,66,0.00,,---,0.00,VWS V14.01,2013-05-09 17:30:00,
2013-05-09 13:40:00,58.3,46.2,29.85,WSW,242,6.3,13.9,64,0.00,,---,0.00,VWS V14.01,2013-05-09 17:40:00,
2013-05-09 13:45:00,57.2,45.6,29.83,SSW,194,11.6,14.8,65,0.00,,---,0.00,VWS V14.01,2013-05-09 17:45:00,
2013-05-09 13:50:00,57.4,45.7,29.83,WSW,240,7.2,14.8,65,0.00,,---,0.00,VWS V14.01,2013-05-09 17:50:00,
2013-05-09 13:55:00,57.4,45.7,29.83,SW,215,8.1,13.0,65,0.00,,---,0.00,VWS V14.01,2013-05-09 17:55:00,
2013-05-09 14:00:00,59.5,45.2,29.83,WSW,247,4.0,15.2,59,0.00,,---,0.00,VWS V14.01,2013-05-09 18:00:00,
2013-05-09 14:10:00,60.3,44.5,29.83,SW,235,9.4,13.0,56,0.00,,---,0.00,VWS V14.01,2013-05-09 18:10:00,
2013-05-09 14:15:00,60.3,44.5,29.83,SW,218,9.8,13.0,56,0.00,,---,0.00,VWS V14.01,2013-05-09 18:15:00,
2013-05-09 14:20:00,60.3,44.5,29.83,SSW,204,13.0,13.0,56,0.00,,---,0.00,VWS V14.01,2013-05-09 18:20:00,
2013-05-09 14:25:00,60.3,44.5,29.83,SSW,212,6.7,14.3,56,0.00,,---,0.00,VWS V14.01,2013-05-09 18:25:00,
2013-05-09 14:35:00,60.3,44.5,29.83,SW,222,10.3,13.4,56,0.00,,---,0.00,VWS V14.01,2013-05-09 18:35:00,
2013-05-09 14:45:00,60.3,44.5,29.83,SW,223,8.5,10.3,56,0.00,,---,0.00,VWS V14.01,2013-05-09 18:45:00,
2013-05-09 14:50:00,60.3,44.5,29.83,SSW,200,8.9,13.4,56,0.00,,---,0.00,VWS V14.01,2013-05-09 18:50:00,
2013-05-09 14:55:00,60.3,44.5,29.83,SSW,197,10.3,10.7,56,0.00,,---,0.00,VWS V14.01,2013-05-09 18:55:00,
2013-05-09 15:05:00,60.3,44.5,29.83,SW,218,5.8,12.5,56,0.00,,---,0.00,VWS V14.01,2013-05-09 19:05:00,
2013-05-09 15:10:00,60.3,44.5,29.83,NNE,19,2.7,7.6,56,0.00,,---,0.00,VWS V14.01,2013-05-09 19:10:00,
2013-05-09 15:20:00,60.3,44.5,29.83,SSW,194,10.3,12.5,56,0.00,,---,0.00,VWS V14.01,2013-05-09 19:20:00,
2013-05-09 15:25:00,60.3,44.5,29.83,South,171,4.9,13.0,56,0.00,,---,0.00,VWS V14.01,2013-05-09 19:25:00,
2013-05-09 15:35:00,60.3,44.5,29.83,SSE,160,0.0,4.0,56,0.00,,---,0.00,VWS V14.01,2013-05-09 19:35:00,
2013-05-09 15:40:00,60.3,44.5,29.83,SW,221,6.7,12.5,56,0.00,,---,0.00,VWS V14.01,2013-05-09 19:40:00,
2013-05-09 15:45:00,60.3,44.5,29.83,WSW,240,2.2,8.1,56,0.00,,---,0.00,VWS V14.01,2013-05-09 19:45:00,
2013-05-09 15:55:00,60.3,44.5,29.83,WSW,252,6.3,9.8,56,0.00,,---,0.00,VWS V14.01,2013-05-09 19:55:00,
2013-05-09 16:00:00,60.3,44.5,29.83,SW,215,5.4,7.2,56,0.00,,---,0.00,VWS V14.01,2013-05-09 20:00:00,
2013-05-09 16:10:00,60.3,44.5,29.83,SSW,205,2.2,3.6,56,0.00,,---,0.00,VWS V14.01,2013-05-09 20:10:00,
2013-05-09 16:15:00,60.3,44.5,29.83,WSW,245,5.4,8.5,56,0.00,,---,0.00,VWS V14.01,2013-05-09 20:15:00,
2013-05-09 16:20:00,60.3,44.5,29.83,WSW,238,0.0,5.8,56,0.00,,---,0.00,VWS V14.01,2013-05-09 20:20:00,
2013-05-09 16:30:00,60.3,44.5,29.83,South,176,0.0,0.4,56,0.00,,---,0.00,VWS V14.01,2013-05-09 20:30:00,
2013-05-09 16:35:00,60.3,44.5,29.83,South,176,0.0,0.0,56,0.00,,---,0.00,VWS V14.01,2013-05-09 20:35:00,
2013-05-09 16:45:00,60.3,44.5,29.83,South,176,0.0,0.0,56,0.00,,---,0.00,VWS V14.01,2013-05-09 20:45:00,
2013-05-09 16:50:00,60.3,44.5,29.83,South,176,0.0,1.8,56,0.00,,---,0.00,VWS V14.01,2013-05-09 20:50:00,
2013-05-09 16:55:00,60.3,44.5,29.83,ESE,119,2.2,2.2,56,0.00,,---,0.00,VWS V14.01,2013-05-09 20:55:00,
2013-05-09 17:05:00,60.3,44.5,29.83,NE,47,0.9,4.5,56,0.00,,---,0.00,VWS V14.01,2013-05-09 21:05:00,
2013-05-09 17:10:00,60.3,44.5,29.83,NNE,26,4.0,5.8,56,0.00,,---,0.00,VWS V14.01,2013-05-09 21:10:00,
2013-05-09 17:20:00,60.3,44.5,29.83,WNW,287,8.1,11.6,56,0.00,,---,0.00,VWS V14.01,2013-05-09 21:20:00,
2013-05-09 17:25:00,60.3,44.5,29.83,NW,321,8.9,13.4,56,0.00,,---,0.00,VWS V14.01,2013-05-09 21:25:00,
2013-05-09 17:30:00,60.3,44.5,29.83,WNW,285,4.0,13.9,56,0.00,,---,0.00,VWS V14.01,2013-05-09 21:30:00,
2013-05-09 17:40:00,60.3,44.5,29.83,NW,314,3.1,9.8,56,0.00,,---,0.00,VWS V14.01,2013-05-09 21:40:00,
2013-05-09 17:45:00,60.3,44.5,29.83,West,263,5.8,13.4,56,0.00,,---,0.00,VWS V14.01,2013-05-09 21:45:00,
2013-05-09 17:55:00,60.3,44.5,29.83,NW,308,3.1,10.7,56,0.00,,---,0.00,VWS V14.01,2013-05-09 21:55:00,
2013-05-09 18:00:00,60.3,44.5,29.83,NW,315,4.5,12.1,56,0.00,,---,0.00,VWS V14.01,2013-05-09 22:00:00,
2013-05-09 18:10:00,60.3,44.5,29.83,West,273,6.3,10.7,56,0.00,,---,0.00,VWS V14.01,2013-05-09 22:10:00,
2013-05-09 18:15:00,60.3,44.5,29.83,West,281,6.3,9.4,56,0.00,,---,0.00,VWS V14.01,2013-05-09 22:15:00,
2013-05-09 18:20:00,60.3,44.5,29.83,West,280,5.4,8.1,56,0.00,,---,0.00,VWS V14.01,2013-05-09 22:20:00,
2013-05-09 18:30:00,60.3,44.5,29.83,NW,309,4.5,8.5,56,0.00,,---,0.00,VWS V14.01,2013-05-09 22:30:00,
2013-05-09 18:35:00,60.3,44.5,29.83,NW,307,4.9,9.4,56,0.00,,---,0.00,VWS V14.01,2013-05-09 22:35:00,
2013-05-09 18:40:00,60.3,44.5,29.83,NW,308,6.7,10.3,56,0.00,,---,0.00,VWS V14.01,2013-05-09 22:40:00,
2013-05-09 18:50:00,60.3,44.5,29.83,NW,308,4.0,6.7,56,0.00,,---,0.00,VWS V14.01,2013-05-09 22:50:00,
2013-05-09 18:55:00,60.3,44.5,29.83,NW,319,5.4,8.1,56,0.00,,---,0.00,VWS V14.01,2013-05-09 22:55:00,
2013-05-09 19:05:00,60.3,44.5,29.83,NW,318,2.7,5.8,56,0.00,,---,0.00,VWS V14.01,2013-05-09 23:05:00,
2013-05-09 19:10:00,60.3,44.5,29.83,WNW,284,4.0,5.4,56,0.00,,---,0.00,VWS V14.01,2013-05-09 23:10:00,
2013-05-09 19:15:00,54.7,41.1,29.83,WNW,288,4.9,5.8,60,0.00,,---,0.00,VWS V14.01,2013-05-09 23:15:00,
2013-05-09 19:25:00,54.9,41.2,29.83,NW,307,1.3,6.3,60,0.00,,---,0.00,VWS V14.01,2013-05-09 23:25:00,
2013-05-09 19:30:00,54.9,41.2,29.83,NW,307,1.8,5.8,60,0.00,,---,0.00,VWS V14.01,2013-05-09 23:30:00,
2013-05-09 19:35:00,54.9,41.2,29.83,NNW,336,5.4,9.8,60,0.00,,---,0.00,VWS V14.01,2013-05-09 23:35:00,
2013-05-09 19:45:00,54.9,41.2,29.83,WNW,295,5.4,6.3,60,0.00,,---,0.00,VWS V14.01,2013-05-09 23:45:00,
2013-05-09 19:50:00,53.6,41.3,29.83,NW,314,3.6,8.9,63,0.00,,---,0.00,VWS V14.01,2013-05-09 23:50:00,
2013-05-09 20:00:00,52.9,41.5,29.85,WNW,297,4.5,6.7,65,0.00,,---,0.00,VWS V14.01,2013-05-10 00:00:00,
2013-05-09 20:05:00,52.7,41.7,29.85,WNW,298,4.0,9.4,66,0.00,,---,0.00,VWS V14.01,2013-05-10 00:05:00,
2013-05-09 20:10:00,52.7,41.7,29.85,WNW,302,3.6,6.3,66,0.00,,---,0.00,VWS V14.01,2013-05-10 00:10:00,
2013-05-09 20:20:00,51.8,41.2,29.85,WNW,302,2.7,4.5,67,0.00,,---,0.00,VWS V14.01,2013-05-10 00:20:00,
2013-05-09 20:25:00,50.2,40.4,29.85,WNW,302,0.0,2.7,69,0.00,,---,0.00,VWS V14.01,2013-05-10 00:25:00,
2013-05-09 20:35:00,46.6,40.4,29.85,WNW,302,0.0,1.8,79,0.00,,---,0.00,VWS V14.01,2013-05-10 00:35:00,
2013-05-09 20:40:00,46.2,40.7,29.85,WNW,302,1.8,2.2,81,0.00,,---,0.00,VWS V14.01,2013-05-10 00:40:00,
2013-05-09 20:45:00,46.0,41.2,29.85,WNW,302,2.7,3.1,83,0.00,,---,0.00,VWS V14.01,2013-05-10 00:45:00,
2013-05-09 20:55:00,45.7,40.8,29.85,WNW,302,0.0,2.2,83,0.00,,---,0.00,VWS V14.01,2013-05-10 00:55:00,
2013-05-09 21:00:00,45.7,40.8,29.85,WNW,302,0.4,0.4,83,0.00,,---,0.00,VWS V14.01,2013-05-10 01:00:00,
2013-05-09 21:05:00,45.7,40.8,29.85,WNW,302,2.2,2.7,83,0.00,,---,0.00,VWS V14.01,2013-05-10 01:05:00,
2013-05-09 21:15:00,44.8,41.2,29.85,WNW,302,0.0,0.0,87,0.00,,---,0.00,VWS V14.01,2013-05-10 01:15:00,
2013-05-09 21:20:00,44.6,41.0,29.85,WNW,302,0.0,0.0,87,0.00,,---,0.00,VWS V14.01,2013-05-10 01:20:00,
2013-05-09 21:25:00,43.7,40.1,29.85,WNW,302,0.0,0.0,87,0.00,,---,0.00,VWS V14.01,2013-05-10 01:25:00,
2013-05-09 21:35:00,43.2,40.7,29.88,WNW,302,0.0,0.0,91,0.00,,---,0.00,VWS V14.01,2013-05-10 01:35:00,
2013-05-09 21:40:00,43.0,40.5,29.88,WNW,302,0.0,0.0,91,0.00,,---,0.00,VWS V14.01,2013-05-10 01:40:00,
2013-05-09 21:50:00,43.2,41.8,29.88,WNW,302,0.0,0.0,95,0.00,,---,0.00,VWS V14.01,2013-05-10 01:50:00,
2013-05-09 21:55:00,42.1,40.5,29.88,WNW,302,0.0,0.0,94,0.00,,---,0.00,VWS V14.01,2013-05-10 01:55:00,
2013-05-09 22:05:00,43.2,43.2,29.88,WNW,302,0.0,0.0,100,0.00,,---,0.00,VWS V14.01,2013-05-10 02:05:00,
2013-05-09 22:10:00,43.0,43.0,29.88,WNW,302,0.0,0.0,100,0.00,,---,0.00,VWS V14.01,2013-05-10 02:10:00,
2013-05-09 22:15:00,43.0,43.0,29.88,WNW,302,2.2,2.7,100,0.00,,---,0.00,VWS V14.01,2013-05-10 02:15:00,
2013-05-09 22:25:00,43.7,43.7,29.88,WNW,302,0.0,0.0,100,0.00,,---,0.00,VWS V14.01,2013-05-10 02:25:00,
2013-05-09 22:30:00,42.8,42.8,29.88,WNW,302,0.0,0.0,100,0.00,,---,0.00,VWS V14.01,2013-05-10 02:30:00,
2013-05-09 22:40:00,42.1,42.1,29.88,WNW,302,0.0,0.0,100,0.00,,---,0.00,VWS V14.01,2013-05-10 02:40:00,
2013-05-09 22:45:00,41.0,41.0,29.88,WNW,302,0.0,0.0,100,0.00,,---,0.00,VWS V14.01,2013-05-10 02:45:00,
2013-05-09 22:55:00,42.1,42.1,29.88,WNW,302,1.8,3.1,100,0.00,,---,0.00,VWS V14.01,2013-05-10 02:55:00,
2013-05-09 23:00:00,42.1,42.1,29.88,WNW,301,0.0,1.8,100,0.00,,---,0.00,VWS V14.01,2013-05-10 03:00:00,
2013-05-09 23:05:00,42.3,42.3,29.88,WNW,301,0.0,0.0,100,0.00,,---,0.00,VWS V14.01,2013-05-10 03:05:00,
2013-05-09 23:15:00,41.4,41.4,29.88,WNW,301,0.0,0.0,100,0.00,,---,0.00,VWS V14.01,2013-05-10 03:15:00,
2013-05-09 23:20:00,40.6,40.6,29.88,WNW,301,0.0,0.0,100,0.00,,---,0.00,VWS V14.01,2013-05-10 03:20:00,
2013-05-09 23:30:00,40.8,40.8,29.88,WNW,301,0.0,0.0,100,0.00,,---,0.00,VWS V14.01,2013-05-10 03:30:00,
2013-05-09 23:35:00,40.6,40.6,29.88,WNW,301,0.0,0.0,100,0.00,,---,0.00,VWS V14.01,2013-05-10 03:35:00,
2013-05-09 23:45:00,39.6,39.6,29.88,WNW,302,0.0,0.0,100,0.00,,---,0.00,VWS V14.01,2013-05-10 03:45:00,
2013-05-09 23:50:00,39.7,39.7,29.88,WNW,301,3.1,4.5,100,0.00,,---,0.00,VWS V14.01,2013-05-10 03:50:00,
2013-05-09 23:55:00,39.9,39.9,29.88,WNW,301,0.0,4.0,100,0.00,,---,0.00,VWS V14.01,2013-05-10 03:55:00,